Weather History for Shenandoah, IA

Change the Weather History Date:

Wednesday, June 25, 2014

  Actual Average Record
Temperature  
Mean Temperature 73 °F -  
Max Temperature 86 °F 86 °F 102 °F (1954)
Min Temperature 60 °F 62 °F 44 °F (2004)
Cooling Degree Days 8    
Growing Degree Days 23 (Base 50)    
Moisture  
Dew Point 65 °F    
Average Humidity 75    
Maximum Humidity 100    
Minimum Humidity 48    
Precipitation  
Precipitation 0.00 in - - ()
Sea Level Pressure  
Sea Level Pressure 30.01 in    
Wind  
Wind Speed 3 mph (SSE)    
Max Wind Speed 13 mph    
Max Gust Speed 17 mph    
Visibility 10 miles    
Events      
Averages and records for this station are not official NWS values.
T = Trace of Precipitation, MM = Missing Value Source: NWS Daily Summary

Daily Weather History Graph

Daily Weather History Graph

Search for Another Location

Airport:

Trip Planner

Search our weather history database for the weather conditions in past years. The results will help you decide how hot, cold, wet, or windy it might be!

Date:

Astronomy

Jun. 25, 2014 Rise Set
Actual Time 5:51 AM CDT 8:57 PM CDT
Civil Twilight 5:18 AM CDT 9:30 PM CDT
Nautical Twilight 4:35 AM CDT 10:13 PM CDT
Astronomical Twilight 3:45 AM CDT 11:03 PM CDT
Moon 4:44 AM CDT (6/25) 7:29 PM CDT (6/25)
Length of Visible Light 16h 12m
Length of Day
15h 05m
Waning Crescent, 3% of the Moon is Illuminated
Jun 25
Waning Crescent
Jun 27
New
Jul 5
First Quarter
Jul 12
Full
Jul 18
Last Quarter

Hourly Weather History & Observations

Time (CDT) Temp. Heat Index Dew Point Humidity Pressure Visibility Wind Dir Wind Speed Gust Speed Precip Events Conditions
12:15 AM 64.4 °F - 62.6 °F 94% 30.02 in 10.0 mi Calm Calm - N/A   Clear
12:35 AM 64.4 °F - 62.6 °F 94% 30.02 in 10.0 mi Calm Calm - N/A   Clear
12:55 AM 62.6 °F - 60.8 °F 94% 30.01 in 10.0 mi Calm Calm - N/A   Clear
1:15 AM 62.6 °F - 62.6 °F 100% 30.01 in 10.0 mi Calm Calm - N/A   Clear
1:35 AM 62.6 °F - 62.6 °F 100% 30.01 in 10.0 mi Calm Calm - N/A   Clear
1:55 AM 62.6 °F - 62.6 °F 100% 30.02 in 10.0 mi Calm Calm - N/A   Clear
2:15 AM 62.6 °F - 60.8 °F 94% 30.02 in 10.0 mi Calm Calm - N/A   Clear
2:35 AM 62.6 °F - 60.8 °F 94% 30.02 in 10.0 mi Calm Calm - N/A   Clear
2:55 AM 62.6 °F - 62.6 °F 100% 30.02 in 10.0 mi Calm Calm - N/A   Clear
3:15 AM 62.6 °F - 60.8 °F 94% 30.02 in 10.0 mi Calm Calm - N/A   Clear
3:35 AM 62.6 °F - 60.8 °F 94% 30.02 in 9.0 mi Calm Calm - N/A   Clear
3:55 AM 60.8 °F - 60.8 °F 100% 30.02 in 9.0 mi NE 4.6 mph - N/A   Clear
4:15 AM 60.8 °F - 60.8 °F 100% 30.02 in 8.0 mi NE 4.6 mph - N/A   Clear
4:35 AM 60.8 °F - 60.8 °F 100% 30.02 in 10.0 mi Calm Calm - N/A   Clear
4:55 AM 60.8 °F - 60.8 °F 100% 30.02 in 10.0 mi Calm Calm - N/A   Scattered Clouds
5:15 AM 60.8 °F - 60.8 °F 100% 30.02 in 10.0 mi Calm Calm - N/A   Scattered Clouds
5:35 AM 62.6 °F - 60.8 °F 94% 30.03 in 10.0 mi Calm Calm - N/A   Mostly Cloudy
5:55 AM 62.6 °F - 60.8 °F 94% 30.03 in 10.0 mi Calm Calm - N/A   Mostly Cloudy
6:15 AM 62.6 °F - 60.8 °F 94% 30.03 in 10.0 mi Calm Calm - N/A   Mostly Cloudy
6:35 AM 62.6 °F - 62.6 °F 100% 30.04 in 10.0 mi Calm Calm - N/A   Clear
6:55 AM 64.4 °F - 62.6 °F 94% 30.04 in 10.0 mi Calm Calm - N/A   Clear
7:15 AM 64.4 °F - 62.6 °F 94% 30.04 in 10.0 mi Calm Calm - N/A   Clear
7:35 AM 66.2 °F - 64.4 °F 94% 30.04 in 10.0 mi Calm Calm - N/A   Clear
7:55 AM 68.0 °F - 64.4 °F 88% 30.04 in 10.0 mi Calm Calm - N/A   Clear
8:15 AM 69.8 °F - 64.4 °F 83% 30.05 in 10.0 mi Calm Calm - N/A   Clear
8:35 AM 71.6 °F - 66.2 °F 83% 30.05 in 10.0 mi Calm Calm - N/A   Clear
8:55 AM 75.2 °F - 66.2 °F 73% 30.06 in 10.0 mi Calm Calm - N/A   Clear
9:15 AM 77.0 °F - 66.2 °F 69% 30.06 in 10.0 mi South 5.8 mph - N/A   Clear
9:35 AM 77.0 °F - 64.4 °F 65% 30.05 in 10.0 mi South 4.6 mph - N/A   Clear
9:55 AM 78.8 °F - 64.4 °F 61% 30.05 in 10.0 mi SSE 3.5 mph - N/A   Clear
10:15 AM 78.8 °F - 64.4 °F 61% 30.04 in 10.0 mi SE 5.8 mph - N/A   Clear
10:35 AM 80.6 °F 82.3 °F 64.4 °F 58% 30.04 in 10.0 mi SSE 5.8 mph - N/A   Clear
10:55 AM 80.6 °F 82.7 °F 66.2 °F 61% 30.04 in 10.0 mi Variable 5.8 mph - N/A   Scattered Clouds
11:15 AM 80.6 °F 82.7 °F 66.2 °F 61% 30.04 in 10.0 mi South 6.9 mph - N/A   Partly Cloudy
11:35 AM 80.6 °F 82.3 °F 64.4 °F 58% 30.04 in 10.0 mi SSE 8.1 mph - N/A   Clear
11:55 AM 82.4 °F 83.9 °F 64.4 °F 54% 30.03 in 10.0 mi South 8.1 mph - N/A   Clear
12:15 PM 82.4 °F 84.6 °F 66.2 °F 58% 30.03 in 10.0 mi SE 8.1 mph - N/A   Clear
12:35 PM 82.4 °F 84.6 °F 66.2 °F 58% 30.03 in 10.0 mi South 8.1 mph 13.8 mph N/A   Scattered Clouds
12:55 PM 84.2 °F 86.6 °F 66.2 °F 55% 30.02 in 10.0 mi SSE 9.2 mph - N/A   Mostly Cloudy
1:15 PM 84.2 °F 85.6 °F 64.4 °F 51% 30.02 in 10.0 mi SSE 11.5 mph - N/A   Mostly Cloudy
1:35 PM 84.2 °F 85.6 °F 64.4 °F 51% 30.02 in 10.0 mi SE 11.5 mph - N/A   Partly Cloudy
1:55 PM 84.2 °F 86.6 °F 66.2 °F 55% 30.01 in 10.0 mi SSE 11.5 mph - N/A   Clear
2:15 PM 84.2 °F 86.6 °F 66.2 °F 55% 30.01 in 10.0 mi South 8.1 mph - N/A   Scattered Clouds
2:35 PM 84.2 °F 86.6 °F 66.2 °F 55% 30.01 in 10.0 mi SE 10.4 mph - N/A   Partly Cloudy
2:55 PM 84.2 °F 85.6 °F 64.4 °F 51% 30.00 in 10.0 mi SSE 8.1 mph - N/A   Scattered Clouds
3:15 PM 84.2 °F 85.6 °F 64.4 °F 51% 30.00 in 10.0 mi SE 12.7 mph - N/A   Clear
3:35 PM 84.2 °F 86.6 °F 66.2 °F 55% 30.00 in 10.0 mi SE 11.5 mph - N/A   Scattered Clouds
3:55 PM 84.2 °F 86.6 °F 66.2 °F 55% 30.00 in 10.0 mi SSE 10.4 mph - N/A   Partly Cloudy
4:15 PM 86.0 °F 87.3 °F 64.4 °F 48% 29.99 in 10.0 mi South 10.4 mph - N/A   Clear
4:35 PM 84.2 °F 86.6 °F 66.2 °F 55% 29.98 in 10.0 mi SSE 9.2 mph - N/A   Scattered Clouds
4:55 PM 84.2 °F 86.6 °F 66.2 °F 55% 29.98 in 10.0 mi SSE 11.5 mph - N/A   Partly Cloudy
5:15 PM 82.4 °F 84.6 °F 66.2 °F 58% 29.97 in 10.0 mi SSE 11.5 mph 17.3 mph N/A   Clear
5:35 PM 84.2 °F 86.6 °F 66.2 °F 55% 29.96 in 10.0 mi SSE 10.4 mph - N/A   Scattered Clouds
5:55 PM 84.2 °F 86.6 °F 66.2 °F 55% 29.96 in 10.0 mi South 8.1 mph 13.8 mph N/A   Clear
6:15 PM 84.2 °F 85.6 °F 64.4 °F 51% 29.96 in 10.0 mi South 10.4 mph 16.1 mph N/A   Partly Cloudy
6:35 PM 84.2 °F 86.6 °F 66.2 °F 55% 29.96 in 10.0 mi South 10.4 mph - N/A   Clear
7:15 PM 84.2 °F 87.3 °F 68.0 °F 58% 29.96 in 10.0 mi SSE 9.2 mph - N/A   Scattered Clouds
7:35 PM 80.6 °F 83.2 °F 68.0 °F 65% 29.96 in 10.0 mi SSE 5.8 mph - N/A   Partly Cloudy
7:55 PM 82.4 °F 85.4 °F 68.0 °F 62% 29.96 in 10.0 mi SSE 5.8 mph - N/A   Clear
8:15 PM 80.6 °F 83.9 °F 69.8 °F 70% 29.96 in 10.0 mi SSE 4.6 mph - N/A   Clear
8:35 PM 78.8 °F - 69.8 °F 74% 29.96 in 10.0 mi SE 4.6 mph - N/A   Clear
8:55 PM 77.0 °F - 69.8 °F 78% 29.96 in 10.0 mi ESE 5.8 mph - N/A   Clear
9:15 PM 75.2 °F - 69.8 °F 83% 29.95 in 10.0 mi SE 4.6 mph - N/A   Clear
9:35 PM 73.4 °F - 69.8 °F 88% 29.95 in 10.0 mi ESE 5.8 mph - N/A   Clear
9:55 PM 73.4 °F - 68.0 °F 83% 29.96 in 10.0 mi SE 5.8 mph - N/A   Clear
10:15 PM 73.4 °F - 68.0 °F 83% 29.97 in 10.0 mi SSE 6.9 mph - N/A   Clear
10:55 PM 73.4 °F - 68.0 °F 83% 29.99 in 10.0 mi SSE 5.8 mph - N/A   Clear
11:15 PM 71.6 °F - 68.0 °F 88% 30.00 in 10.0 mi SE 3.5 mph - N/A   Clear
11:35 PM 71.6 °F - 68.0 °F 88% 30.00 in 10.0 mi SSE 6.9 mph - N/A   Clear
11:55 PM 71.6 °F - 68.0 °F 88% 30.00 in 10.0 mi ESE 4.6 mph - N/A   Clear